Year,Month,Day,Hour,Minute,Value (Times are PST for temperature in C)
2009,08,20,09,28,21.60
2009,08,20,09,29,21.60
2009,08,20,09,30,21.70
2009,08,20,09,31,21.70
2009,08,20,09,32,21.90
2009,08,20,09,33,22.00
2009,08,20,09,34,22.00
2009,08,20,09,35,22.20
2009,08,20,09,36,22.30
2009,08,20,09,37,22.40
2009,08,20,09,38,22.50
2009,08,20,09,39,22.60
2009,08,20,09,40,22.60
2009,08,20,09,41,22.60
2009,08,20,09,42,22.70
2009,08,20,09,43,22.70
2009,08,20,09,44,22.80
2009,08,20,09,45,22.80
2009,08,20,09,46,22.80
2009,08,20,09,47,22.80
2009,08,20,09,48,22.80
2009,08,20,09,49,22.80
2009,08,20,09,50,22.90
2009,08,20,09,51,22.90
2009,08,20,09,52,22.90
2009,08,20,09,53,22.90
2009,08,20,09,54,22.80
2009,08,20,09,55,22.70
2009,08,20,09,56,22.60
2009,08,20,09,57,22.50
2009,08,20,09,58,22.50
2009,08,20,09,59,22.40
2009,08,20,10,00,22.40
2009,08,20,10,01,22.40
2009,08,20,10,02,22.50
2009,08,20,10,03,22.50
2009,08,20,10,04,22.50
2009,08,20,10,05,22.50
2009,08,20,10,06,22.40
2009,08,20,10,07,22.40
2009,08,20,10,08,22.50
2009,08,20,10,09,22.50
2009,08,20,10,10,22.50
2009,08,20,10,11,22.40
2009,08,20,10,12,22.30
2009,08,20,10,13,22.30
2009,08,20,10,14,22.30
2009,08,20,10,15,22.20
2009,08,20,10,16,22.20
2009,08,20,10,17,22.20
2009,08,20,10,18,22.20
2009,08,20,10,19,22.10
2009,08,20,10,20,22.10
2009,08,20,10,21,22.20
2009,08,20,10,22,22.20
2009,08,20,10,23,22.20
2009,08,20,10,24,22.30
2009,08,20,10,25,22.30
2009,08,20,10,26,22.30
2009,08,20,10,27,22.30
2009,08,20,10,28,22.30
2009,08,20,10,29,22.40
2009,08,20,10,30,22.40
2009,08,20,10,31,22.40
2009,08,20,10,32,22.30
2009,08,20,10,33,22.40
2009,08,20,10,34,22.40
2009,08,20,10,35,22.50
2009,08,20,10,36,22.60
2009,08,20,10,37,22.80
2009,08,20,10,38,22.90
2009,08,20,10,39,22.90
2009,08,20,10,40,22.90
2009,08,20,10,41,22.90
2009,08,20,10,42,22.80
2009,08,20,10,43,22.70
2009,08,20,10,44,22.60
2009,08,20,10,45,22.60
2009,08,20,10,46,22.50
2009,08,20,10,47,22.40
2009,08,20,10,48,22.40
2009,08,20,10,49,22.30
2009,08,20,10,50,22.30
2009,08,20,10,51,22.30
2009,08,20,10,52,22.40
2009,08,20,10,53,22.40
2009,08,20,10,54,22.60
2009,08,20,10,55,22.50
2009,08,20,10,56,22.50
2009,08,20,10,57,22.50
2009,08,20,10,58,22.50
2009,08,20,10,59,22.40
2009,08,20,11,00,22.50
2009,08,20,11,01,22.50
2009,08,20,11,02,22.40
2009,08,20,11,03,22.40
2009,08,20,11,04,22.50
2009,08,20,11,05,22.50
2009,08,20,11,06,22.60
2009,08,20,11,07,22.50
2009,08,20,11,08,22.50
2009,08,20,11,09,22.60
2009,08,20,11,10,22.50
2009,08,20,11,11,22.50
2009,08,20,11,12,22.40
2009,08,20,11,13,22.40
2009,08,20,11,14,22.50
2009,08,20,11,15,22.60
2009,08,20,11,16,22.60
2009,08,20,11,17,22.50
2009,08,20,11,18,22.40
2009,08,20,11,19,22.30
2009,08,20,11,20,22.30
2009,08,20,11,21,22.30
2009,08,20,11,22,22.30
2009,08,20,11,23,22.30
2009,08,20,11,24,22.40
2009,08,20,11,25,22.60
2009,08,20,11,26,22.70
2009,08,20,11,27,22.70
2009,08,20,11,28,22.70
2009,08,20,11,29,22.70
2009,08,20,11,30,22.80
2009,08,20,11,31,22.90
2009,08,20,11,32,22.90
2009,08,20,11,33,22.90
2009,08,20,11,34,22.90
2009,08,20,11,35,22.90
2009,08,20,11,36,22.80
2009,08,20,11,37,22.80
2009,08,20,11,38,22.80
2009,08,20,11,39,22.90
2009,08,20,11,40,23.00
2009,08,20,11,41,23.10
2009,08,20,11,42,23.10
2009,08,20,11,43,23.00
2009,08,20,11,44,22.90
2009,08,20,11,45,22.90
2009,08,20,11,46,23.00
2009,08,20,11,47,23.10
2009,08,20,11,48,23.10
2009,08,20,11,49,23.20
2009,08,20,11,50,23.20
2009,08,20,11,51,23.30
2009,08,20,11,52,23.30
2009,08,20,11,53,23.30
2009,08,20,11,54,23.30
2009,08,20,11,55,23.30
2009,08,20,11,56,23.30
2009,08,20,11,57,23.30
2009,08,20,11,58,23.30
2009,08,20,11,59,23.30
2009,08,20,12,00,23.40
2009,08,20,12,01,23.50
2009,08,20,12,02,23.70
2009,08,20,12,03,23.70
2009,08,20,12,04,23.70
2009,08,20,12,05,23.70
2009,08,20,12,06,23.70
2009,08,20,12,07,23.70
2009,08,20,12,08,23.70
2009,08,20,12,09,23.80
2009,08,20,12,10,23.80
2009,08,20,12,11,23.90
2009,08,20,12,12,24.00
2009,08,20,12,13,23.90
2009,08,20,12,14,23.90
2009,08,20,12,15,23.70
2009,08,20,12,16,23.70
2009,08,20,12,17,23.80
2009,08,20,12,18,23.90
2009,08,20,12,19,24.00
2009,08,20,12,20,24.10
2009,08,20,12,21,24.30
2009,08,20,12,22,24.50
2009,08,20,12,23,24.60
2009,08,20,12,24,24.70
2009,08,20,12,25,24.80
2009,08,20,12,26,24.80
2009,08,20,12,27,24.90
2009,08,20,12,28,25.00
2009,08,20,12,29,25.00
2009,08,20,12,30,24.80
2009,08,20,12,31,24.70
2009,08,20,12,32,24.60
2009,08,20,12,33,24.60
2009,08,20,12,34,24.70
2009,08,20,12,35,24.70
2009,08,20,12,36,24.80
2009,08,20,12,37,24.70
2009,08,20,12,38,24.70
2009,08,20,12,39,24.70
2009,08,20,12,40,24.80
2009,08,20,12,41,24.80
2009,08,20,12,42,24.70
2009,08,20,12,43,24.70
2009,08,20,12,44,24.70
2009,08,20,12,45,24.70
2009,08,20,12,46,24.70
2009,08,20,12,47,24.80
2009,08,20,12,48,24.70
2009,08,20,12,49,24.80
2009,08,20,12,50,24.80
2009,08,20,12,51,24.90
2009,08,20,12,52,24.90
2009,08,20,12,53,24.80
2009,08,20,12,54,24.70
2009,08,20,12,55,24.50
2009,08,20,12,56,24.50
2009,08,20,12,57,24.50
2009,08,20,12,58,24.50
2009,08,20,12,59,24.60
2009,08,20,13,00,24.70
2009,08,20,13,01,24.70
2009,08,20,13,02,24.80
2009,08,20,13,03,24.90
2009,08,20,13,04,25.00
2009,08,20,13,05,25.00
2009,08,20,13,06,25.00
2009,08,20,13,07,25.10
2009,08,20,13,08,25.10
2009,08,20,13,09,25.10
2009,08,20,13,10,25.20
2009,08,20,13,11,25.20
2009,08,20,13,12,25.20
2009,08,20,13,13,25.10
2009,08,20,13,14,25.10
2009,08,20,13,15,25.20
2009,08,20,13,16,25.20
2009,08,20,13,17,25.20
2009,08,20,13,18,25.20
2009,08,20,13,19,25.10
2009,08,20,13,20,24.90
2009,08,20,13,21,24.90
2009,08,20,13,22,24.90
2009,08,20,13,23,24.80
2009,08,20,13,24,24.90
2009,08,20,13,25,24.90
2009,08,20,13,26,25.00
2009,08,20,13,27,25.10
2009,08,20,13,28,25.30
2009,08,20,13,29,25.30
2009,08,20,13,30,25.40
2009,08,20,13,31,25.30
2009,08,20,13,32,25.30
2009,08,20,13,33,25.30
2009,08,20,13,34,25.30
2009,08,20,13,35,25.30
2009,08,20,13,36,25.20
2009,08,20,13,37,25.20
2009,08,20,13,38,25.20
2009,08,20,13,39,25.40
2009,08,20,13,40,25.40
2009,08,20,13,41,25.40
2009,08,20,13,42,25.50
2009,08,20,13,43,25.50
2009,08,20,13,44,25.50
2009,08,20,13,45,25.60
2009,08,20,13,46,25.70
2009,08,20,13,47,25.80
2009,08,20,13,48,25.90
2009,08,20,13,49,25.90
2009,08,20,13,50,25.90
2009,08,20,13,51,25.90
2009,08,20,13,52,25.80
2009,08,20,13,53,25.70
2009,08,20,13,54,25.60
2009,08,20,13,55,25.60
2009,08,20,13,56,25.60
2009,08,20,13,57,25.60
2009,08,20,13,58,25.60
2009,08,20,13,59,25.60
2009,08,20,14,00,25.60
2009,08,20,14,01,25.70
2009,08,20,14,02,25.60
2009,08,20,14,03,25.60
2009,08,20,14,04,25.70
2009,08,20,14,05,25.70
2009,08,20,14,06,25.80
2009,08,20,14,07,25.90
2009,08,20,14,08,25.90
2009,08,20,14,09,26.00
2009,08,20,14,10,26.00
2009,08,20,14,11,26.00
2009,08,20,14,12,26.00
2009,08,20,14,13,26.00
2009,08,20,14,14,25.90
2009,08,20,14,15,26.00
2009,08,20,14,16,26.00
2009,08,20,14,17,26.00
2009,08,20,14,18,26.00
2009,08,20,14,19,26.00
2009,08,20,14,20,26.00
2009,08,20,14,21,25.90
2009,08,20,14,22,25.90
2009,08,20,14,23,25.90
2009,08,20,14,24,25.90
2009,08,20,14,25,26.00
2009,08,20,14,26,26.00
2009,08,20,14,27,26.00
2009,08,20,14,28,26.10
2009,08,20,14,29,26.10
2009,08,20,14,30,26.10
2009,08,20,14,31,26.20
2009,08,20,14,32,26.20
2009,08,20,14,33,26.30
2009,08,20,14,34,26.30
2009,08,20,14,35,26.30
2009,08,20,14,36,26.40
2009,08,20,14,37,26.50
2009,08,20,14,38,26.60
2009,08,20,14,39,26.60
2009,08,20,14,40,26.70
2009,08,20,14,41,26.70
2009,08,20,14,42,26.70
2009,08,20,14,43,26.70
2009,08,20,14,44,26.60
2009,08,20,14,45,26.60
2009,08,20,14,46,26.60
2009,08,20,14,47,26.70
2009,08,20,14,48,26.70
2009,08,20,14,49,26.70
2009,08,20,14,50,26.70
2009,08,20,14,51,26.70
2009,08,20,14,52,26.70
2009,08,20,14,53,26.80
2009,08,20,14,54,26.80
2009,08,20,14,55,26.80
2009,08,20,14,56,26.90
2009,08,20,14,57,26.90
2009,08,20,14,58,27.00
2009,08,20,14,59,27.10
2009,08,20,15,00,27.10
2009,08,20,15,01,27.10
2009,08,20,15,02,27.10
2009,08,20,15,03,27.20
2009,08,20,15,04,27.20
2009,08,20,15,05,27.20
2009,08,20,15,06,27.20
2009,08,20,15,07,27.20
2009,08,20,15,08,27.20
2009,08,20,15,09,27.20
2009,08,20,15,10,27.10
2009,08,20,15,11,27.10
2009,08,20,15,12,27.10
2009,08,20,15,13,27.10
2009,08,20,15,14,27.10
2009,08,20,15,15,27.10
2009,08,20,15,16,27.20
2009,08,20,15,17,27.20
2009,08,20,15,18,27.20
2009,08,20,15,19,27.10
2009,08,20,15,20,27.10
2009,08,20,15,21,27.10
2009,08,20,15,22,27.10
2009,08,20,15,23,27.10
2009,08,20,15,24,27.10
2009,08,20,15,25,27.10
2009,08,20,15,26,27.10
2009,08,20,15,27,27.10
2009,08,20,15,28,27.00
2009,08,20,15,29,27.00
2009,08,20,15,30,26.90
2009,08,20,15,31,26.90
2009,08,20,15,32,26.90
2009,08,20,15,33,26.90
2009,08,20,15,34,26.90
2009,08,20,15,35,26.90
2009,08,20,15,36,26.80
2009,08,20,15,37,26.70
2009,08,20,15,38,26.80
2009,08,20,15,39,26.80
2009,08,20,15,40,26.80
2009,08,20,15,41,26.70
2009,08,20,15,42,26.70
2009,08,20,15,43,26.60
2009,08,20,15,44,26.60
2009,08,20,15,45,26.40
2009,08,20,15,46,26.40
2009,08,20,15,47,26.30
2009,08,20,15,48,26.30
2009,08,20,15,49,26.30
2009,08,20,15,50,26.20
2009,08,20,15,51,26.20
2009,08,20,15,52,26.20
2009,08,20,15,53,26.20
2009,08,20,15,54,26.10
2009,08,20,15,55,26.10
2009,08,20,15,56,26.00
2009,08,20,15,57,25.90
2009,08,20,15,58,25.90
2009,08,20,15,59,25.80
2009,08,20,16,00,25.90
2009,08,20,16,01,25.90
2009,08,20,16,02,25.90
2009,08,20,16,03,25.90
2009,08,20,16,04,25.90
2009,08,20,16,05,25.90
2009,08,20,16,06,26.00
2009,08,20,16,07,26.00
2009,08,20,16,08,26.00
2009,08,20,16,09,26.00
2009,08,20,16,10,26.10
2009,08,20,16,11,26.10
2009,08,20,16,12,26.10
2009,08,20,16,13,26.10
2009,08,20,16,14,26.00
2009,08,20,16,15,26.00
2009,08,20,16,16,25.90
2009,08,20,16,17,25.90
2009,08,20,16,18,25.90
2009,08,20,16,19,25.80
2009,08,20,16,20,25.80
2009,08,20,16,21,25.80
2009,08,20,16,22,25.80
2009,08,20,16,23,25.80
2009,08,20,16,24,25.80
2009,08,20,16,25,25.70
2009,08,20,16,26,25.70
2009,08,20,16,27,25.70
2009,08,20,16,28,25.70
2009,08,20,16,29,25.70
2009,08,20,16,30,25.60
2009,08,20,16,31,25.60
2009,08,20,16,32,25.60
2009,08,20,16,33,25.50
2009,08,20,16,34,25.50
2009,08,20,16,35,25.50
2009,08,20,16,36,25.50
2009,08,20,16,37,25.60
2009,08,20,16,38,25.60
2009,08,20,16,39,25.60
2009,08,20,16,40,25.60
2009,08,20,16,41,25.60
2009,08,20,16,42,25.60
2009,08,20,16,43,25.60
2009,08,20,16,44,25.60
2009,08,20,16,45,25.60
2009,08,20,16,46,25.70
2009,08,20,16,47,25.70
2009,08,20,16,48,25.70
2009,08,20,16,49,25.70
2009,08,20,16,50,25.80
2009,08,20,16,51,25.80
2009,08,20,16,52,25.80
2009,08,20,16,53,25.80
2009,08,20,16,54,25.70
2009,08,20,16,55,25.50
2009,08,20,16,56,25.40
2009,08,20,16,57,25.40
2009,08,20,16,58,25.30
2009,08,20,16,59,25.30
2009,08,20,17,00,25.30
2009,08,20,17,01,25.30
2009,08,20,17,02,25.20
2009,08,20,17,03,25.20
2009,08,20,17,04,25.10
2009,08,20,17,05,25.10
2009,08,20,17,06,25.00
2009,08,20,17,07,25.00
2009,08,20,17,08,24.90
2009,08,20,17,09,24.90
2009,08,20,17,10,24.90
2009,08,20,17,11,24.90
2009,08,20,17,12,24.80
2009,08,20,17,13,24.80
2009,08,20,17,14,24.70
2009,08,20,17,15,24.60
2009,08,20,17,16,24.60
2009,08,20,17,17,24.50
2009,08,20,17,18,24.50
2009,08,20,17,19,24.50
2009,08,20,17,20,24.50
2009,08,20,17,21,24.50
2009,08,20,17,22,24.50
2009,08,20,17,23,24.50
2009,08,20,17,24,24.60
2009,08,20,17,25,24.60
2009,08,20,17,26,24.60
2009,08,20,17,27,24.70
2009,08,20,17,28,24.70
2009,08,20,17,29,24.80
2009,08,20,17,30,24.90
2009,08,20,17,31,24.90
2009,08,20,17,32,25.00
2009,08,20,17,33,25.10
2009,08,20,17,34,25.20
2009,08,20,17,35,25.30
2009,08,20,17,36,25.40
2009,08,20,17,37,25.40
2009,08,20,17,38,25.40
2009,08,20,17,39,25.40
2009,08,20,17,40,25.40
2009,08,20,17,41,25.40
2009,08,20,17,42,25.40
2009,08,20,17,43,25.50
2009,08,20,17,44,25.50
2009,08,20,17,45,25.60
2009,08,20,17,46,25.60
2009,08,20,17,47,25.60
2009,08,20,17,48,25.60
2009,08,20,17,49,25.60
2009,08,20,17,50,25.50
2009,08,20,17,51,25.50
2009,08,20,17,52,25.50
2009,08,20,17,53,25.40
2009,08,20,17,54,25.40
2009,08,20,17,55,25.40
2009,08,20,17,56,25.40
2009,08,20,17,57,25.40
2009,08,20,17,58,25.30
2009,08,20,17,59,25.30
2009,08,20,18,00,25.20
2009,08,20,18,01,25.20
2009,08,20,18,02,25.10
2009,08,20,18,03,25.10
2009,08,20,18,04,25.00
2009,08,20,18,05,24.90
2009,08,20,18,06,24.90
2009,08,20,18,07,24.90
2009,08,20,18,08,24.90
2009,08,20,18,09,24.90
2009,08,20,18,10,24.80
2009,08,20,18,11,24.80
2009,08,20,18,12,24.90
2009,08,20,18,13,24.90
2009,08,20,18,14,24.90
2009,08,20,18,15,24.90
2009,08,20,18,16,24.90
2009,08,20,18,17,24.90
2009,08,20,18,18,24.90
2009,08,20,18,19,24.90
2009,08,20,18,20,24.90
2009,08,20,18,21,24.90
2009,08,20,18,22,24.90
2009,08,20,18,23,24.90
2009,08,20,18,24,24.90
2009,08,20,18,25,24.90
2009,08,20,18,26,24.80
2009,08,20,18,27,24.80
2009,08,20,18,28,24.80
2009,08,20,18,29,24.80
2009,08,20,18,30,24.70
2009,08,20,18,31,24.60
2009,08,20,18,32,24.50
2009,08,20,18,33,24.50
2009,08,20,18,34,24.40
2009,08,20,18,35,24.40
2009,08,20,18,36,24.30
2009,08,20,18,37,24.20
2009,08,20,18,38,24.20
2009,08,20,18,39,24.10
2009,08,20,18,40,24.10
2009,08,20,18,41,24.10
2009,08,20,18,42,24.10
2009,08,20,18,43,24.10
2009,08,20,18,44,24.10
2009,08,20,18,45,24.10
2009,08,20,18,46,24.10
2009,08,20,18,47,24.20
2009,08,20,18,48,24.20
2009,08,20,18,49,24.20
2009,08,20,18,50,24.20
2009,08,20,18,51,24.30
2009,08,20,18,52,24.30
2009,08,20,18,53,24.30
2009,08,20,18,54,24.30
2009,08,20,18,55,24.20
2009,08,20,18,56,24.20
2009,08,20,18,57,24.20
2009,08,20,18,58,24.10
2009,08,20,18,59,24.10
2009,08,20,19,00,24.10
2009,08,20,19,01,23.90
2009,08,20,19,02,23.90
2009,08,20,19,03,23.80
2009,08,20,19,04,23.80
2009,08,20,19,05,23.70
2009,08,20,19,06,23.70
2009,08,20,19,07,23.70
2009,08,20,19,08,23.60
2009,08,20,19,09,23.50
2009,08,20,19,10,23.40
2009,08,20,19,11,23.30
2009,08,20,19,12,23.30
2009,08,20,19,13,23.30
2009,08,20,19,14,23.30
2009,08,20,19,15,23.20
2009,08,20,19,16,23.20
2009,08,20,19,17,23.10
2009,08,20,19,18,23.10
2009,08,20,19,19,22.90
2009,08,20,19,20,22.90
2009,08,20,19,21,22.90
2009,08,20,19,22,22.80
2009,08,20,19,23,22.80
2009,08,20,19,24,22.70
2009,08,20,19,25,22.70
2009,08,20,19,26,22.70
2009,08,20,19,27,22.70
2009,08,20,19,28,22.70
2009,08,20,19,29,22.60
2009,08,20,19,30,22.60
2009,08,20,19,31,22.60
2009,08,20,19,32,22.60
2009,08,20,19,33,22.60
2009,08,20,19,34,22.60
2009,08,20,19,35,22.60
2009,08,20,19,36,22.60
2009,08,20,19,37,22.50
2009,08,20,19,38,22.50
2009,08,20,19,39,22.50
2009,08,20,19,40,22.40
2009,08,20,19,41,22.40
2009,08,20,19,42,22.30
2009,08,20,19,43,22.30
2009,08,20,19,44,22.20
2009,08,20,19,45,22.20
2009,08,20,19,46,22.10
2009,08,20,19,47,22.10
2009,08,20,19,48,22.00
2009,08,20,19,49,22.00
2009,08,20,19,50,21.90
2009,08,20,19,51,21.90
2009,08,20,19,52,21.80
2009,08,20,19,53,21.80
2009,08,20,19,54,21.70
2009,08,20,19,55,21.70
2009,08,20,19,56,21.60
2009,08,20,19,57,21.60
2009,08,20,19,58,21.60
2009,08,20,19,59,21.60
2009,08,20,20,00,21.60
2009,08,20,20,01,21.60
2009,08,20,20,02,21.60
2009,08,20,20,03,21.60
2009,08,20,20,04,21.60
2009,08,20,20,05,21.50
2009,08,20,20,06,21.40
2009,08,20,20,07,21.40
2009,08,20,20,08,21.40
2009,08,20,20,09,21.40
2009,08,20,20,10,21.40
2009,08,20,20,11,21.40
2009,08,20,20,12,21.40
2009,08,20,20,13,21.30
2009,08,20,20,14,21.30
2009,08,20,20,15,21.30
2009,08,20,20,16,21.30
2009,08,20,20,17,21.30
2009,08,20,20,18,21.30
2009,08,20,20,19,21.20
2009,08,20,20,20,21.20
2009,08,20,20,21,21.20
2009,08,20,20,22,21.10
2009,08,20,20,23,21.10
2009,08,20,20,24,21.10
2009,08,20,20,25,21.00
2009,08,20,20,26,20.90
2009,08,20,20,27,20.90
2009,08,20,20,28,20.80
2009,08,20,20,29,20.80
2009,08,20,20,30,20.70
2009,08,20,20,31,20.70
2009,08,20,20,32,20.60
2009,08,20,20,33,20.60
2009,08,20,20,34,20.60
2009,08,20,20,35,20.50
2009,08,20,20,36,20.50
2009,08,20,20,37,20.50
2009,08,20,20,38,20.40
2009,08,20,20,39,20.40
2009,08,20,20,40,20.30
2009,08,20,20,41,20.30
2009,08,20,20,42,20.30
2009,08,20,20,43,20.20
2009,08,20,20,45,20.20
2009,08,20,20,47,20.20
2009,08,20,20,48,20.20
2009,08,20,20,49,20.10
2009,08,20,20,50,20.10
2009,08,20,20,51,20.10
2009,08,20,20,52,20.00
2009,08,20,20,53,19.90
2009,08,20,20,54,19.90
2009,08,20,20,55,19.90
2009,08,20,20,56,19.90
2009,08,20,20,57,19.90
2009,08,20,20,58,19.90
2009,08,20,20,59,19.90
2009,08,20,21,00,19.80
2009,08,20,21,01,19.80
2009,08,20,21,02,19.80
2009,08,20,21,03,19.80
2009,08,20,21,04,19.80
2009,08,20,21,05,19.80
2009,08,20,21,06,19.70
2009,08,20,21,07,19.70
2009,08,20,21,08,19.70
2009,08,20,21,09,19.60
2009,08,20,21,10,19.60
2009,08,20,21,11,19.60
2009,08,20,21,12,19.60
2009,08,20,21,13,19.60
2009,08,20,21,14,19.60
2009,08,20,21,15,19.60
2009,08,20,21,16,19.60
2009,08,20,21,17,19.60
2009,08,20,21,18,19.60
2009,08,20,21,19,19.50
2009,08,20,21,20,19.60
2009,08,20,21,21,19.60
2009,08,20,21,22,19.60
2009,08,20,21,23,19.50
2009,08,20,21,24,19.50
2009,08,20,21,25,19.50
2009,08,20,21,26,19.50
2009,08,20,21,27,19.50
2009,08,20,21,28,19.50
2009,08,20,21,29,19.50
2009,08,20,21,30,19.50
2009,08,20,21,31,19.50
2009,08,20,21,32,19.50
2009,08,20,21,33,19.40
2009,08,20,21,34,19.40
2009,08,20,21,35,19.40
2009,08,20,21,36,19.40
2009,08,20,21,37,19.40
2009,08,20,21,38,19.40
2009,08,20,21,39,19.40
2009,08,20,21,49,19.40
2009,08,20,21,50,19.40
2009,08,20,21,51,19.40
2009,08,20,21,52,19.40
2009,08,20,21,53,19.40
2009,08,20,21,54,19.40
2009,08,20,21,55,19.40
2009,08,20,21,56,19.40
2009,08,20,21,57,19.40
2009,08,20,21,58,19.40
2009,08,20,21,59,19.40
2009,08,20,22,00,19.40
2009,08,20,22,01,19.30
2009,08,20,22,02,19.30
2009,08,20,22,03,19.30
2009,08,20,22,04,19.30
2009,08,20,22,05,19.30
2009,08,20,22,06,19.30
2009,08,20,22,07,19.20
2009,08,20,22,08,19.20
2009,08,20,22,09,19.20
2009,08,20,22,10,19.20
2009,08,20,22,11,19.20
2009,08,20,22,12,19.20
2009,08,20,22,13,19.10
2009,08,20,22,14,19.10
2009,08,20,22,15,19.10
2009,08,20,22,16,19.10
2009,08,20,22,17,19.10
2009,08,20,22,18,19.10
2009,08,20,22,19,19.10
2009,08,20,22,20,19.10
2009,08,20,22,21,19.10
2009,08,20,22,22,19.10
2009,08,20,22,23,19.10
2009,08,20,22,24,19.10
2009,08,20,22,25,19.10
2009,08,20,22,26,19.10
2009,08,20,22,27,19.10
2009,08,20,22,28,19.00
2009,08,20,22,29,18.90
2009,08,20,22,30,18.90
2009,08,20,22,31,18.90
2009,08,20,22,32,18.90
2009,08,20,22,33,18.90
2009,08,20,22,34,18.90
2009,08,20,22,35,18.90
2009,08,20,22,36,18.90
2009,08,20,22,37,18.90
2009,08,20,22,38,18.90
2009,08,20,22,39,18.90
2009,08,20,22,40,18.80
2009,08,20,22,41,18.80
2009,08,20,22,43,18.80
2009,08,20,22,44,18.70
2009,08,20,22,45,18.70
2009,08,20,22,46,18.70
2009,08,20,22,47,18.70
2009,08,20,22,48,18.70
2009,08,20,22,49,18.70
2009,08,20,22,50,18.60
2009,08,20,22,51,18.60
2009,08,20,22,52,18.60
2009,08,20,22,53,18.50
2009,08,20,22,54,18.50
2009,08,20,22,55,18.50
2009,08,20,22,56,18.50
2009,08,20,22,57,18.40
2009,08,20,22,58,18.40
2009,08,20,22,59,18.40
2009,08,20,23,00,18.30
2009,08,20,23,01,18.30
2009,08,20,23,02,18.30
2009,08,20,23,03,18.20
2009,08,20,23,04,18.20
2009,08,20,23,05,18.20
2009,08,20,23,06,18.20
2009,08,20,23,07,18.20
2009,08,20,23,08,18.20
2009,08,20,23,09,18.20
2009,08,20,23,10,18.20
2009,08,20,23,11,18.20
2009,08,20,23,12,18.20
2009,08,20,23,13,18.20
2009,08,20,23,14,18.20
2009,08,20,23,15,18.20
2009,08,20,23,16,18.20
2009,08,20,23,17,18.20
2009,08,20,23,18,18.20
2009,08,20,23,19,18.20
2009,08,20,23,20,18.20
2009,08,20,23,21,18.20
2009,08,20,23,22,18.20
2009,08,20,23,23,18.20
2009,08,20,23,24,18.20
2009,08,20,23,25,18.20
2009,08,20,23,26,18.20
2009,08,20,23,27,18.20
2009,08,20,23,28,18.20
2009,08,20,23,29,18.10
2009,08,20,23,30,18.10
2009,08,20,23,31,18.10
2009,08,20,23,32,18.10
2009,08,20,23,33,18.10
2009,08,20,23,34,18.10
2009,08,20,23,35,18.10
2009,08,20,23,36,18.10
2009,08,20,23,37,18.10
2009,08,20,23,38,18.10
2009,08,20,23,39,18.10
2009,08,20,23,40,18.10
2009,08,20,23,41,18.10
2009,08,20,23,42,18.10
2009,08,20,23,43,18.10
2009,08,20,23,44,18.10
2009,08,20,23,45,18.10
2009,08,20,23,46,18.10
2009,08,20,23,47,18.10
2009,08,20,23,48,18.10
2009,08,20,23,49,18.10
2009,08,20,23,50,18.00
2009,08,20,23,51,17.90
2009,08,20,23,52,17.90
2009,08,20,23,53,17.90
2009,08,20,23,54,17.90
2009,08,20,23,55,17.90
2009,08,20,23,56,17.90
2009,08,20,23,57,17.90
2009,08,20,23,58,17.90
2009,08,20,23,59,17.90
